Location: Auckland
(36.8670°S, 174.7670°E)
Time: 18:43:21
(UTC+13:00)

Cosmos 2322 Rocket - Pass Details

Date: 24 January 2019
Orbit: 834 x 849 km, 71.0° (Epoch: 16 February)

Event Time Altitude Azimuth Distance (km) Brightness Sun altitude
Rises 21:12:04 0° 2° (N) 3,378 5.0 -6.8°
Reaches altitude 10° 21:14:38 10° 10° (N) 2,454 4.2 -7.3°
Maximum altitude 21:19:46 37° 76° (ENE) 1,297 2.7 -8.1°
Drops below altitude 10° 21:24:58 10° 141° (SE) 2,492 4.6 -9.0°
Sets 21:27:36 0° 149° (SSE) 3,437 5.4 -9.5°
